Thurmont, MD

8:40 PM EDT on September 19, 2017 (GMT -0400)
Thurmont

Weather History for KRSP - November, 2013

Change the Weather History Date:

Saturday, November 23, 2013

  Actual Average (KHGR) Record (KHGR)
Temperature  
Mean Temperature 32 °F -  
Max Temperature 42 °F 49 °F 68 °F (1998)
Min Temperature 21 °F 34 °F 19 °F (2000)
Degree Days  
Heating Degree Days 34    
Moisture  
Dew Point 21 °F    
Average Humidity 64    
Maximum Humidity 87    
Minimum Humidity 44    
Precipitation  
Precipitation 0.00 in - - ()
Sea Level Pressure  
Sea Level Pressure 30.11 in    
Wind  
Wind Speed 14 mph (NNW)    
Max Wind Speed 23 mph    
Max Gust Speed 39 mph    
Visibility 10 miles    
Events      
Averages and records for this station are not official NWS values.
T = Trace of Precipitation, MM = Missing Value Source: NWS Daily Summary

Daily Weather History Graph

Daily Weather History Graph

Search for Another Location

Airport or City:

Trip Planner

Search our weather history database for the weather conditions in past years. The results will help you decide how hot, cold, wet, or windy it might be!

Date:

Astronomy

Nov. 23, 2013 Rise Set
Actual Time 7:03 AM EST 4:49 PM EST
Civil Twilight 6:34 AM EST 5:18 PM EST
Nautical Twilight 6:00 AM EST 5:51 PM EST
Astronomical Twilight 5:28 AM EST 6:23 PM EST
Moon 10:15 PM EST (11/23) 11:19 AM EST (11/23)
Length of Visible Light 10h 44m
Length of Day
9h 45m
Waning Gibbous, 70% of the Moon is Illuminated
Nov 23
Waning Gibbous
Nov 25
Last Quarter
Dec 2
New
Dec 9
First Quarter
Dec 17
Full

Hourly Weather History & Observations

Time (EST) Temp. Windchill Dew Point Humidity Pressure Visibility Wind Dir Wind Speed Gust Speed Precip Events Conditions
12:32 AM 42.8 °F 35.8 °F 39.2 °F 87% 30.06 in 10.0 mi NNW 13.8 mph 28.8 mph N/A   Overcast
12:54 AM 42.1 °F 34.9 °F 37.0 °F 82% 30.09 in 10.0 mi NNW 13.8 mph 25.3 mph N/A   Overcast
1:09 AM 41.0 °F 33.5 °F 35.6 °F 81% 30.05 in 10.0 mi NNW 13.8 mph 29.9 mph N/A   Overcast
1:54 AM 39.0 °F 31.4 °F 33.1 °F 79% 30.11 in 10.0 mi NNW 12.7 mph 26.5 mph N/A   Clear
3:54 AM 35.1 °F 25.9 °F 26.1 °F 70% 30.14 in 10.0 mi NNW 13.8 mph 25.3 mph N/A   Clear
4:54 AM 32.0 °F 25.6 °F 24.1 °F 73% 30.15 in 10.0 mi Variable 6.9 mph 21.9 mph N/A   Clear
6:54 AM 30.0 °F 20.0 °F 24.1 °F 79% 30.15 in 10.0 mi NW 12.7 mph 24.2 mph N/A   Clear
7:54 AM 30.9 °F 20.7 °F 21.9 °F 69% 30.16 in 10.0 mi NW 13.8 mph 24.2 mph N/A   Clear
8:54 AM 32.0 °F 22.1 °F 23.0 °F 69% 30.16 in 10.0 mi NW 13.8 mph 25.3 mph N/A   Clear
9:54 AM 32.0 °F 24.2 °F 23.0 °F 69% 30.16 in 10.0 mi NW 9.2 mph 17.3 mph N/A   Clear
10:54 AM 32.0 °F 24.2 °F 21.0 °F 64% 30.14 in 10.0 mi NW 9.2 mph 16.1 mph N/A   Clear
11:54 AM 36.0 °F 28.0 °F 21.9 °F 57% 30.11 in 10.0 mi NW 11.5 mph 23.0 mph N/A   Clear
12:54 PM 36.0 °F 26.7 °F 21.0 °F 55% 30.07 in 10.0 mi NNW 15.0 mph 27.6 mph N/A   Clear
1:54 PM 36.0 °F 26.0 °F 21.0 °F 55% 30.05 in 10.0 mi NW 17.3 mph 25.3 mph N/A   Clear
2:54 PM 36.0 °F 26.0 °F 17.1 °F 46% 30.04 in 10.0 mi NW 17.3 mph 32.2 mph N/A   Clear
3:54 PM 35.1 °F 25.5 °F 15.1 °F 44% 30.04 in 10.0 mi NW 15.0 mph 28.8 mph N/A   Clear
4:54 PM 34.0 °F 22.1 °F 14.0 °F 44% 30.06 in 10.0 mi NNW 21.9 mph 36.8 mph N/A   Clear
5:54 PM 32.0 °F 22.1 °F 14.0 °F 48% 30.06 in 10.0 mi NW 13.8 mph 31.1 mph N/A   Mostly Cloudy
6:54 PM 30.0 °F 19.5 °F 19.0 °F 64% 30.09 in 10.0 mi NNW 13.8 mph 35.7 mph N/A   Overcast
7:54 PM 26.1 °F 12.7 °F 19.0 °F 75% 30.11 in 10.0 mi NNW 18.4 mph 34.5 mph 0.00 in   Mostly Cloudy
8:54 PM 25.0 °F 11.7 °F 12.9 °F 60% 30.13 in 10.0 mi NNW 17.3 mph 32.2 mph N/A   Scattered Clouds
9:54 PM 24.1 °F 11.5 °F 10.9 °F 57% 30.14 in 10.0 mi NNW 15.0 mph 34.5 mph N/A   Mostly Cloudy
10:54 PM 21.9 °F 5.8 °F 7.0 °F 53% 30.17 in 10.0 mi NNW 23.0 mph 39.1 mph N/A   Scattered Clouds
11:54 PM 21.0 °F 5.7 °F 7.0 °F 55% 30.17 in 10.0 mi NNW 19.6 mph 38.0 mph N/A   Mostly Cloudy